(338407) = 2003 BS21

Discovered at Anderson Mesa on 2003-01-27 by LONEOS.

Orbit

Orbit type: Hungaria

Note: WebGL enabled browser required.

epoch2024-03-31.0
epoch JD2460400.5
perihelion date2023-04-09.60471
perihelion JD2460044.10471
argument of perihelion (°)255.46030
ascending node (°)129.88952
inclination (°)22.72915
eccentricity0.0924244
perihelion distance (AU)1.7181661
Tisserand w.r.t. Jupiter3.9
ΔV w.r.t. Earth (km/sec)10.8
semimajor axis (AU)1.8931382
mean anomaly (°)134.85353
mean daily motion (°/day)0.37838190
aphelion distance (AU)2.068
period (years)2.6
P-vector [x]0.84603293
P-vector [y]0.49735356
P-vector [z]-0.19200967
Q-vector [x]-0.44310305
Q-vector [y]0.85625116
Q-vector [z]0.26550638
absolute magnitude17.5
phase slope0.15
uncertainty0
referenceMPEC 2024-D136
observations used404
oppositions11
arc length (days)7702
first opposition used2003
last opposition used2024
residual rms (arc-secs)0.75
perturbers coarse indicatorM-v
perturbers precise indicator003Ek
first observation date used2003-01-27.0
last observation date used2024-02-28.0
computer nameMPCLINUX
JD of orbit computation2456847.777230
perihelion JD uncertainty (days)1.6660E-04
argument of perihelion uncertainty (°)5.5790E-05
ascending node uncertainty (°)1.6802E-05
inclination uncertainty (°)7.4630E-06
eccentricity uncertainty 6.8706E-08
perihelion distance uncertainty (AU)1.3648E-07
Minimum Orbit Intersection Distances (in AU)
for orbit epoch: 2460400.5, reference: E2024-FB1
Mercury1.37239
Venus1.04049
Earth0.79246
Mars0.27862
Jupiter3.23853
Saturn7.21301
Uranus16.4704
Neptune28.2207

Observations

411 total observations over interval: 2003 01 27.24254 – 2024 02 28.469890
These data are available for download (format description).

Date (UT) J2000 RA J2000 Dec Magn Location Ref
2003 01 27.24254 08 18 30.53 +15 18 41.6 18.8   704 – Lincoln Laboratory ETS, New Mexico MPS 73343
2003 01 27.25796 08 18 29.32 +15 19 03.0 19.0   704 – Lincoln Laboratory ETS, New Mexico MPS 73343
2003 01 27.27333 08 18 28.19 +15 19 24.0 19.0   704 – Lincoln Laboratory ETS, New Mexico MPS 73343
2003 01 27.28866 08 18 27.01 +15 19 45.1 19.2   704 – Lincoln Laboratory ETS, New Mexico MPS 73343
2003 01 27.30413 08 18 25.85 +15 20 05.4 19.2   704 – Lincoln Laboratory ETS, New Mexico MPS 73343
2003 01 27.33883 08 18 23.22 +15 20 54.0 18.6 R 699 – Lowell Observatory-LONEOS MPS 71901
2003 01 27.36011 08 18 21.50 +15 21 21.5   699 – Lowell Observatory-LONEOS MPS 71901
2003 01 27.38142 08 18 19.88 +15 21 50.0   699 – Lowell Observatory-LONEOS MPS 71901
2003 01 27.40270 08 18 18.33 +15 22 18.6   699 – Lowell Observatory-LONEOS MPS 71901
2003 01 28.23418 08 17 18.08 +15 41 07.0 18.5   704 – Lincoln Laboratory ETS, New Mexico MPS 71901
2003 01 28.24973 08 17 16.83 +15 41 27.5 19.5   704 – Lincoln Laboratory ETS, New Mexico MPS 71901
2003 01 28.26530 08 17 15.70 +15 41 49.0 19.3   704 – Lincoln Laboratory ETS, New Mexico MPS 71901
2003 01 28.28064 08 17 14.54 +15 42 09.8 19.2   704 – Lincoln Laboratory ETS, New Mexico MPS 71901
2003 01 30.22453 08 14 54.08 +16 25 53.2 18.5   644 – Palomar Mountain/NEAT MPS 71901
2003 01 30.24151 08 14 52.76 +16 26 15.6 18.9 R 699 – Lowell Observatory-LONEOS MPS 71901
2003 01 30.25931 08 14 51.40 +16 26 39.2   699 – Lowell Observatory-LONEOS MPS 71901
2003 01 30.27725 08 14 50.08 +16 27 03.9   699 – Lowell Observatory-LONEOS MPS 71901
2003 01 30.28850 08 14 49.29 +16 27 19.5 18.5   644 – Palomar Mountain/NEAT MPS 71901
2003 01 30.29532 08 14 48.68 +16 27 28.0   699 – Lowell Observatory-LONEOS MPS 71901
2003 01 30.35131 08 14 44.56 +16 28 43.7 18.6   644 – Palomar Mountain/NEAT MPS 71901
2003 01 31.25273 08 13 40.33 +16 48 51.2 19.2   704 – Lincoln Laboratory ETS, New Mexico MPS 71901
2003 01 31.26526 08 13 39.46 +16 49 07.6 19.4   704 – Lincoln Laboratory ETS, New Mexico MPS 71901
2003 01 31.26692 08 13 39.31 +16 49 09.6 19.3   704 – Lincoln Laboratory ETS, New Mexico MPS 71902
2003 01 31.27938 08 13 38.45 +16 49 26.4 20.0   704 – Lincoln Laboratory ETS, New Mexico MPS 71902
2003 01 31.28106 08 13 38.28 +16 49 29.0 20.1   704 – Lincoln Laboratory ETS, New Mexico MPS 71902
2003 01 31.29351 08 13 37.41 +16 49 43.9 19.9   704 – Lincoln Laboratory ETS, New Mexico MPS 71902
2003 01 31.30762 08 13 36.28 +16 50 04.2 19.2   704 – Lincoln Laboratory ETS, New Mexico MPS 71902
2003 01 31.30928 08 13 36.17 +16 50 06.8 19.4   704 – Lincoln Laboratory ETS, New Mexico MPS 71902
2003 01 31.32174 08 13 35.30 +16 50 23.0 19.9   704 – Lincoln Laboratory ETS, New Mexico MPS 71902
2003 02 08.24250 08 04 48.28 +19 40 35.7 19.0   704 – Lincoln Laboratory ETS, New Mexico MPS 73343
2003 02 08.25667 08 04 47.38 +19 40 54.2 19.3   704 – Lincoln Laboratory ETS, New Mexico MPS 73343
2003 02 08.27086 08 04 46.45 +19 41 11.2 19.2   704 – Lincoln Laboratory ETS, New Mexico MPS 73343
2003 02 08.28499 08 04 45.54 +19 41 27.4 19.3   704 – Lincoln Laboratory ETS, New Mexico MPS 73343
2004 07 10.42492 21 35 56.24 -09 44 13.5 19.1   644 – Palomar Mountain/NEAT MPS 110316
2004 07 10.43770 21 35 56.00 -09 44 27.9 19.2   644 – Palomar Mountain/NEAT MPS 110316
2004 07 10.45027 21 35 55.80 -09 44 41.8 19.0   644 – Palomar Mountain/NEAT MPS 110316
2004 07 11.29486 21 35 43.74 -10 00 31.6 19.8   704 – Lincoln Laboratory ETS, New Mexico MPS 110316
2004 07 11.30515 21 35 43.59 -10 00 43.8 20.2   704 – Lincoln Laboratory ETS, New Mexico MPS 110316
2004 07 11.31667 21 35 43.44 -10 00 56.9 20.3   704 – Lincoln Laboratory ETS, New Mexico MPS 110316
2004 07 11.32721 21 35 43.23 -10 01 08.1 20.6   704 – Lincoln Laboratory ETS, New Mexico MPS 110316
2004 07 16.31531 21 33 58.89 -11 41 56.8 19.5   704 – Lincoln Laboratory ETS, New Mexico MPS 110316
2004 07 16.32559 21 33 58.60 -11 42 08.5 19.6   704 – Lincoln Laboratory ETS, New Mexico MPS 110316
2004 07 16.33595 21 33 58.27 -11 42 22.7 19.6   704 – Lincoln Laboratory ETS, New Mexico MPS 110316
2004 07 16.34593 21 33 58.03 -11 42 35.7 19.6   704 – Lincoln Laboratory ETS, New Mexico MPS 110316
2004 07 16.35592 21 33 57.77 -11 42 48.5 19.7   704 – Lincoln Laboratory ETS, New Mexico MPS 110316
2004 08 03.52089 21 21 01.24 -19 12 07.0 18.9 R E12 – Siding Spring Survey MPS 110826
2004 08 03.53242 21 21 00.58 -19 12 26.0 17.9 R E12 – Siding Spring Survey MPS 110826
2004 08 03.54393 21 20 59.84 -19 12 43.9 18.4 R E12 – Siding Spring Survey MPS 110826
2004 08 03.55539 21 20 59.20 -19 13 03.1 18.4 R E12 – Siding Spring Survey MPS 110826
2004 08 11.22426 21 13 27.28 -22 38 37.1 19.0   704 – Lincoln Laboratory ETS, New Mexico MPS 111113
2004 08 11.23426 21 13 26.66 -22 38 54.0 19.3   704 – Lincoln Laboratory ETS, New Mexico MPS 111113
2004 08 11.24438 21 13 26.01 -22 39 09.6 19.1   704 – Lincoln Laboratory ETS, New Mexico MPS 111113
2004 08 11.26454 21 13 24.65 -22 39 41.5 19.4   704 – Lincoln Laboratory ETS, New Mexico MPS 111113
2011 01 28.83617 11 28 43.05 +17 44 41.5 20.0 R 300 – Bisei Spaceguard Center-BATTeRS MPS 369457
2011 01 28.84025 11 28 43.01 +17 44 46.3 20.0 R 300 – Bisei Spaceguard Center-BATTeRS MPS 369457
2011 01 28.84435 11 28 42.98 +17 44 51.2 19.8 R 300 – Bisei Spaceguard Center-BATTeRS MPS 369457
2011 01 28.84841 11 28 42.91 +17 44 56.8 19.7 R 300 – Bisei Spaceguard Center-BATTeRS MPS 369457
2011 02 10.36532 11 23 51.82 +22 23 10.3 20.0 V 703 – Catalina Sky Survey MPS 371961
2011 02 10.37296 11 23 51.54 +22 23 20.6 19.4 V 703 – Catalina Sky Survey MPS 371961
2011 02 10.38052 11 23 51.18 +22 23 32.0 20.2 V 703 – Catalina Sky Survey MPS 371961
2011 03 05.22274 11 03 01.98 +30 27 06.8 19.4 V 703 – Catalina Sky Survey MPS 373387
2011 03 05.23083 11 03 01.36 +30 27 16.2 20.3 V 703 – Catalina Sky Survey MPS 373387
2011 03 05.23887 11 03 01.00 +30 27 24.5 19.9 V 703 – Catalina Sky Survey MPS 373387
2011 03 05.24688 11 03 00.50 +30 27 35.0 19.9 V 703 – Catalina Sky Survey MPS 373387
2011 03 11.22647 10 56 37.86 +32 01 57.2 19.4   704 – Lincoln Laboratory ETS, New Mexico MPS 374785
2011 03 11.24971 10 56 36.47 +32 02 16.5 20.0   704 – Lincoln Laboratory ETS, New Mexico MPS 374785
2011 03 11.26137 10 56 35.63 +32 02 25.8 19.8   704 – Lincoln Laboratory ETS, New Mexico MPS 374785
2011 03 11.27305 10 56 34.85 +32 02 37.5 20.3   704 – Lincoln Laboratory ETS, New Mexico MPS 374785
2011 03 14.36586 10 53 25.227 +32 43 51.70 19.8 i F51 – Pan-STARRS 1, Haleakala MPS 381172
2011 03 14.39443 10 53 23.400 +32 44 13.19 19.9 r F51 – Pan-STARRS 1, Haleakala MPS 381172
2011 03 14.40640 10 53 22.635 +32 44 22.12 19.8 r F51 – Pan-STARRS 1, Haleakala MPS 381172
2012 08 16.78190 01 28 57.72 -19 09 45.7 20.0 V E12 – Siding Spring Survey MPS 430050
2012 08 16.78899 01 28 58.08 -19 09 55.1 20.0 V E12 – Siding Spring Survey MPS 430050
2012 08 16.79613 01 28 58.47 -19 10 05.6 19.9 V E12 – Siding Spring Survey MPS 430050
2012 08 16.80331 01 28 58.83 -19 10 14.6 19.9 V E12 – Siding Spring Survey MPS 430050
2012 09 07.66524 01 41 09.88 -28 10 19.8 19.5 V E12 – Siding Spring Survey MPS 431320
2012 09 07.68023 01 41 09.99 -28 10 42.3 19.4 V E12 – Siding Spring Survey MPS 431320
2012 09 07.71007 01 41 10.06 -28 11 27.6 19.2 V E12 – Siding Spring Survey MPS 431320
2012 10 15.61507 01 20 16.72 -38 59 44.7 19.5 V E12 – Siding Spring Survey MPS 434998
2012 10 15.62634 01 20 16.11 -38 59 48.1 19.1 V E12 – Siding Spring Survey MPS 434998
2012 10 15.63772 01 20 15.50 -38 59 50.8 19.2 V E12 – Siding Spring Survey MPS 434998
2012 10 15.64910 01 20 14.82 -38 59 54.0 19.3 V E12 – Siding Spring Survey MPS 434998
2013 12 31.52024 14 27 44.47 +04 02 53.7 21.5 V 691 – Steward Observatory, Kitt Peak-Spacewatch MPS 495178
2013 12 31.53584 14 27 46.16 +04 02 53.6 21.1 V 691 – Steward Observatory, Kitt Peak-Spacewatch MPS 495178
2013 12 31.54848 14 27 47.52 +04 02 52.5 21.1 V 691 – Steward Observatory, Kitt Peak-Spacewatch MPS 495178
2014 05 06.37096 15 58 21.713 +22 01 43.21 20.5 r F51 – Pan-STARRS 1, Haleakala MPS 515156
2014 05 06.38370 15 58 20.865 +22 01 47.36 20.3 r F51 – Pan-STARRS 1, Haleakala MPS 515156
